Tacoma Narrows, WA
on Tuesday, February 26, 2013

Tuesday
Previous Day Next Day
Daily Summary
 ActualAverageRecord
Temperature
Mean Temperature °F °F  
Max Temperature 48°F 47°F 54°F (2014)
Min Temperature 37°F 36°F 23°F (2011)
Degree Days
Heating Degree Days 22    
Moisture
Dew Point 33°F   
Average Humidity 70    
Maximum Humidity 86    
Minimum Humidity 52    
Precipitation
Precipitation 0.00 in in in ()
Wind
Wind Speed 9 mph   
Max Wind Speed 15 mph   
Max Gust Speed 21 mph   
Visibility 10 miles   
Events Rain   
Averages and records for this station are not official NWS values.
Key: T is trace of precipitation, MM is missing value
Source: NWS Daily Summary
Seasonal Weather Averages
Time(PST)TemperatureDew PointHumidity Pressure Visibility Wind DirectionWind SpeedGust SpeedPrecipitationEvents Conditions
12:53 AM 37.9°F 33.1°F 83% 30.32 in 10.0 miles South 9.2 mph - N/A   Clear
1:53 AM 37.9°F 33.1°F 83% 30.32 in 10.0 miles South 8.1 mph - N/A   Partly Cloudy
2:53 AM 37.9°F 34.0°F 86% 30.33 in 10.0 miles SSW 6.9 mph - N/A   Partly Cloudy
3:08 AM 39.2°F 33.8°F 81% 30.33 in 10.0 miles SSW 4.6 mph - N/A   Mostly Cloudy
3:53 AM 39.0°F 34.0°F 82% 30.34 in 10.0 miles SSW 6.9 mph - N/A   Overcast
4:53 AM 39.9°F 34.0°F 79% 30.35 in 10.0 miles SSW 4.6 mph - N/A   Overcast
5:53 AM 39.0°F 33.1°F 79% 30.35 in 10.0 miles South 9.2 mph - N/A   Overcast
6:20 AM 39.2°F 33.8°F 81% 30.34 in 10.0 miles South 10.4 mph - N/A   Overcast
6:30 AM 39.2°F 33.8°F 81% 30.34 in 10.0 miles South 11.5 mph - N/A   Overcast
6:53 AM 39.0°F 33.1°F 79% 30.36 in 10.0 miles South 11.5 mph - N/A   Overcast
7:53 AM 39.9°F 34.0°F 79% 30.36 in 10.0 miles South 11.5 mph - 0.00 in Rain Light Rain
8:53 AM 41.0°F 33.1°F 73% 30.36 in 10.0 miles South 10.4 mph - 0.00 in   Mostly Cloudy
9:53 AM 44.1°F 34.0°F 68% 30.35 in 10.0 miles South 11.5 mph - N/A   Mostly Cloudy
10:53 AM 44.1°F 33.1°F 65% 30.33 in 10.0 miles South 10.4 mph - N/A   Mostly Cloudy
11:53 AM 45.0°F 33.1°F 63% 30.31 in 10.0 miles South 6.9 mph - N/A   Mostly Cloudy
12:53 PM 46.9°F 30.0°F 52% 30.30 in 10.0 miles South 11.5 mph - N/A   Scattered Clouds
1:53 PM 48.0°F 30.9°F 52% 30.27 in 10.0 miles South 10.4 mph - N/A   Scattered Clouds
2:53 PM 46.9°F 30.9°F 54% 30.26 in 10.0 miles South 6.9 mph - N/A   Mostly Cloudy
3:53 PM 46.0°F 30.9°F 56% 30.25 in 10.0 miles South 10.4 mph - N/A   Overcast
4:53 PM 46.0°F 30.9°F 56% 30.25 in 10.0 miles South 12.7 mph - N/A   Overcast
5:53 PM 45.0°F 30.9°F 58% 30.24 in 10.0 miles South 10.4 mph - N/A   Overcast
6:53 PM 44.1°F 33.1°F 65% 30.24 in 10.0 miles SSW 15.0 mph 20.7 mph 0.00 in Rain Light Rain
7:53 PM 44.1°F 33.1°F 65% 30.22 in 10.0 miles SSE 4.6 mph - 0.00 in   Overcast
8:53 PM 44.1°F 33.1°F 65% 30.22 in 10.0 miles South 10.4 mph - 0.00 in   Overcast
9:53 PM 44.1°F 33.1°F 65% 30.21 in 10.0 miles South 11.5 mph - N/A   Overcast
10:53 PM 44.1°F 34.0°F 68% 30.21 in 10.0 miles South 11.5 mph - 0.00 in Rain Light Rain
11:53 PM 44.1°F 34.0°F 68% 30.20 in 10.0 miles SSW 11.5 mph - 0.00 in   Overcast
Moon Phase
Feb. 26 Mar. 04 Mar. 11 Mar. 19 Mar. 27
Sunrise:06:55 AM (PST) Moon Rise:07:23 PM (PST)2/26
Sunset:05:51 PM (PST) Moon Set:06:53 AM (PST)2/26

Copyright © 2014 The Weather Underground, Inc.